Orbital Elements at Epoch 2459200.5 (2020-Dec-17.0) TDB
Reference: JPL 14 (heliocentric ecliptic J2000)
Element | Value | Uncertainty (1-sigma) | Units |
e | .2144721659513179 | 5.3579e-08 | |
a | 2.402943841664849 | 8.6544e-09 | au |
q | 1.887579271283608 | 1.2791e-07 | au |
i | 8.030070213978487 | 5.9768e-06 | deg |
node | 179.9843242385877 | 3.2723e-05 | deg |
peri | 223.4865549986908 | 3.5185e-05 | deg |
M | 2.735370605525036 | 1.0771e-05 | deg |
tp | 2459190.162214099269 (2020-Dec-06.66221410) | 4.0705e-05 | TDB |
period | 1360.547969897032 3.72 | 7.3502e-06 2.012e-08 | d yr |
n | .2645992702684678 | 1.4295e-09 | deg/d |
Q | 2.918308412046089 | 1.051e-08 | au |
|
| | Orbit Determination Parameters
Additional Information
|